Regional Weather Roundup
Issued by NWS Charleston, SC

Current Version | Previous Version | Graphics & Text | Print | Product List | Glossary On
Versions: 1 2 3 4 5 6 7 8 9 10 11 12 13 14 15 16 17 18 19 20 21 22 23 24 25 26 27 28 29 30 31 32 33 34 35 36 37 38 39 40 41 42 43 44 45 46 47 48 49 50
000 ASUS42 KCHS 230827 RWRCHS Regional Weather Roundup National Weather Service Charleston SC 400 AM EDT MON APR 23 2018 NOTE: "fair" indicates few or no clouds below 12,000 feet with no significant weather and/or obstructions to visibility. Not all stations are quality controlled. Use data with caution, especially dewpoint observations. SCZ027-030-031-034>040-042>050-230900- ...Southeast South Carolina... CITY SKY/WX TMP DP RH WIND PRES REMARKS N Charleston LGT RAIN 65 59 81 SE14 30.15F Waterfront Prk N/A 65 61 87 E14 30.00F Mount Pleasant FAIR 64 61 88 E6 30.17S Johns Island LGT RAIN 64 61 88 E15G23 30.15S Pinopolis NOT AVBL Moncks Corner LGT RAIN 59 55 88 E6 30.16F Summerville CLOUDY 61 57 88 E6 30.16S Beaufort MCAS CLOUDY 66 61 84 E13 30.11F Beaufort Arpt CLOUDY 64 59 82 E15G21 30.11S Hilton Head Is CLOUDY 64 61 88 E8G14 30.11S Walterboro RAIN 61 59 94 E10 30.14S Allendale LGT RAIN 61 59 94 E5 30.10F ...Southern Midlands and Pee Dee... CITY SKY/WX TMP DP RH WIND PRES REMARKS Georgetown DRIZZLE 63 61 94 E7 30.22R Kingstree DRIZZLE 59 54 82 E7 30.20F Orangeburg CLOUDY 59 54 83 E6 30.16F Barnwell CLOUDY 59 55 88 E12 30.11F Aiken DRIZZLE 55 55 100 E14 30.14F Manning RAIN 54 52 94 E6 30.18F Columbia LGT RAIN 58 57 97 E13 30.15F Sumter LGT RAIN 59 52 77 E8 30.17F Florence MOCLDY 58 53 84 NE6 30.25R Myrtle Beach FAIR 63 55 75 E10 30.24R N Myrtle Beach FAIR 64 54 69 E10G17 30.24R $$ GAZ063-065-086>088-099>101-113>116-118-119-134>141-150-230900- ...Southeast Georgia... CITY SKY/WX TMP DP RH WIND PRES REMARKS Savannah Arpt CLOUDY 66 63 90 E17G25 30.07F Hunter AAF FAIR 65 61 86 E16G24 30.04F Fort Stewart CLOUDY 64 61 88 E13 30.03F Statesboro CLOUDY 64 32 30 SE5 30.07S Sylvania CLOUDY 63 63 100 SE9 30.09F Claxton DRIZZLE 65 63 92 NE7 30.05F ...CSRA, Central and far Southeast Georgia... CITY SKY/WX TMP DP RH WIND PRES REMARKS Thomson LGT RAIN 58 57 94 S9G21 30.10F Augusta-Bush LGT RAIN 59 57 93 E9G17 30.09F Augusta-Daniel LGT RAIN 60 57 89 E10G20 30.09F Swainsboro LGT RAIN 63 61 94 SE16 30.03F Vidalia LGT RAIN 64 63 94 E15 30.01F Eastman LGT RAIN 64 57 76 SE13 30.01S Hazlehurst LGT RAIN 65 62 87 E14G24 29.98F Alma LGT RAIN 66 64 93 SE10 29.99F Waycross RAIN 67 64 90 SE13 29.97F Jesup CLOUDY 66 63 88 E13G18 30.02S Baxley LGT RAIN 63 63 100 E8G16 29.99F Brunswick CLOUDY 68 63 83 E17G26 30.02F Saint Simons CLOUDY 68 65 90 E20G33 30.02 $$ SCZ027-028-034-036>038-045-046-048>050-GAZ119-141-230900- ...Lake and Supplemental Coastal Observations... STATION/POSITION TIME TEMP WIND PRES WAVE SWELL AIR SEA DIR/SP/G HT/PER HT/PER/DIR (UTC) (F) (DEG/KT/KT) (MB) (FT/S) (FT/S/D) Winyah Bay 0745 64 90/ 12 1023.0S Lake Murray 0720 60 80/ 12/ 14 1021.0 ACE Basin NERRS 0745 64 350/ 5 N/A Fort Pulaski 0800 66 65 110/ 14/ 21 1018.9 Sapelo Island 0800 67 100/ 12 1017.0 $$ ANZ835-935-AMZ111-154-330-350-352-354-370-450-454-472-230900- ...C-MAN and Buoy Observations... STATION/POSITION TIME TEMP WIND PRES WAVE SWELL AIR SEA DIR/SP/G HT/PER HT/PER/DIR (UTC) (F) (DEG/KT/KT) (MB) (FT/S) (FT/S/D) Buoy 41004 0810 69 67 120/ 19/ 23 1021.1 Buoy 41008 0750 68 65 110/ 19/ 21 1017.0F 7/ 8 3/120/ 8 Folly Beach CMAN NOT AVBL Capers Nearshore 0808 65 64 100/ 14/ 17 1021.3F Fripp Nearshore 0808 65 64 100/ 17/ 25 1018.6F STATION/POSITION TIME TEMP WIND PRES WAVE SWELL AIR SEA DIR/SP/G HT/PER HT/PER/DIR (UTC) (F) (DEG/KT/KT) (MB) (FT/S) (FT/S/D) 5E St. Marys GA 0800 66 N/A 8/ 8 Frying Pan Buoy 0810 67 70 100/ 19/ 25 1023.1 Buoy 41025 0810 66 72 120/ 12/ 16 1027.3 Cape Lookout NC NOT AVBL Buoy 41002 0810 68 72 100/ 16/ 21 1023.9 Buoy 41010 0810 74 75 110/ 23/ 29 1018.3 St Augustine FL 0800 70 69 130/ 14/ 15 1016.1F $$

USA.gov is the U.S. government's official web portal to all federal, state and local government web resources and services.